Regional Weather Roundup
Issued by NWS

Home | Current Version | Previous Version | Text Only | Print | Product List | Glossary On
Versions: 1 2 3 4 5 6 7 8 9 10 11 12 13 14 15 16 17 18 19 20 21 22 23 24 25 26 27 28 29 30 31 32 33 34 35 36 37 38 39 40 41 42 43 44 45 46 47 48 49 50
000
ASUS42 KKEY 191910
RWRKEY

FLORIDA REGIONAL WEATHER ROUNDUP FOR THE FLORIDA KEYS
NATIONAL WEATHER SERVICE KEY WEST FLORIDA
300 PM EDT SUN APR 19 2015

...SOUTH FLORIDA AND THE KEYS...

CITY           SKY/WX    TMP DP  RH WIND       PRES   REMARKS
FORT MYERS     MOSUNNY   88  71  57 SW15      29.91F HX  94
SW REGIONAL AP SUNNY     88  72  58 SW20      29.92F HX  94
NAPLES         MOSUNNY   87  71  58 SW20G26   29.92F HX  93
MIAMI          MOSUNNY   89  63  41 S15       29.93F HX  90
WEST KENDALL   SUNNY     90  65  43 S15       29.92F HX  92
HOMESTEAD      SUNNY     88  69  52 S10       29.93F HX  92
MARATHON       MOSUNNY   87  76  69 VRB7      29.94F HX  97
BOCA CHICA NAS PTSUNNY   85  74  69 S14       29.93F HX  92
KEY WEST INTL  SUNNY     85  75  72 S12       29.93F HX  93

...INTERNATIONAL WEATHER...

CITY           SKY/WX    TMP DP  RH WIND       PRES   REMARKS
NASSAU BAHAMAS MOSUNNY   82  70  65 S9        29.96S
CANCUN MEXICO  PTSUNNY   86  72  62 SE20      29.90F HX  92
COZUMEL MEXICO PTSUNNY   82  72  69 SE12      29.89F

ADJACENT COASTAL WATERS...

STATION/POSITION TIME  SKY/WX   TEMP    WIND        PRES    WAVE
                                AIR SEA DIR/SP/G            HT/PER
                 (UTC)          (F)     (DEG/KT/KT) (MB)    (FT/S)
PULASKI SHOAL LI 1800            80     170/ 11/ 11 1013.6F
SAND KEY         1850            80     180/  7/  8 1013.6F
SOMBRERO KEY     1900            81     170/ 11/ 11 1014.4F
LONG KEY         1900            81 85  170/ 11/ 12 1014.6F
MOLASSES REEF    1900            80 80  190/ 13/ 14 1014.0F
FOWEY ROCKS      NOT AVBL

$$


USA.gov is the U.S. government's official web portal to all federal, state and local government web resources and services.